星链-32304 (STARLINK-32304)

导读

**STARLINK-32304卫星**是美国太空探索技术公司(SpaceX)“星链”(Starlink)星座的成员,于2024年8月28日发射入轨,属于星链大规模低轨通信卫星组网部署中的一颗卫星。星链旨在为全球提供高速低延迟宽带互联网接入,STARLINK-32304延续了量产化设计,采用平板构型与霍尔推进器,将服务全球偏远地区网络覆盖与各类通信场景,同时星链也面临太空轨道拥挤、天文观测干扰等争议。

基本信息
目录编号:
60738
目录名称:
STARLINK-32304
国际标识:
2024-152U
轨道中心:
EARTH
卫星名称:
星链-32304 (STARLINK-32304)
卫星全名:
星链-32304 (STARLINK-32304)
卫星状态:
在轨 (已飞行737 天)
发射日期:
2024-08-28 UTC
国别 :
美国 (US)
星等 :
--
轨道信息
数据来源 国际轨道数据
星历时间: 2026-09-03T19:52:19+0800
17小时前
查看轨道信息
半长轴: 6840.867km
偏心率: 0.0001391
轨道倾角: 53.160°
近地点辐角 93.406°
升交点赤经 161.121°
平近点角 266.710°
近地点: 461.778km
远地点: 463.682km
周期: 93.848分钟
每日圈数: 15.34391
详细信息
卫星平台:
Starlink v2.0 mini
运营商:
太空探索技术公司
运营商所在国:
美国
制造商(研发单位):
太空探索技术公司
制造商所在国:
美国
使用方式:
暂无
卫星简介
星链(Starlink)计划是由太空探索技术公司(SpaceX)提出的一个巨型低轨卫星互联网星座项目,计划在2019年至2024年间在太空搭建由约1.2万颗卫星组成的“星链”网络,其中1584颗将部署在地球上空550千米处的近地轨道,并从2020年开始工作。该卫星仍在工作。
2D轨道图
3D轨道图
轨道高度分析图
轨道倾角分析图
轨道综合分析图
查看轨道综合分析图
交会数据列表
事件ID 空间交会对象 最接近时刻(TCA) 交会距离 交会风险概率(CRP) 交会风险指数(CRI) 操作
CDM_260904-112406-073806-449221
2026-09-04T
11:24:25+0000
0.796 km
远距离
4.986829E-5 中风险 0.69
CDM_260904-095006-073806-449221
2026-09-04T
09:50:37+0000
1.695 km
极远距离
3.957674E-6 低风险 0.47
CDM_260904-043404-299206-073822
2026-09-04T
04:34:52+0000
2.465 km
极远距离
1.720138E-6 低风险 0.4
CDM_260903-033204-299206-073823
2026-09-03T
03:32:46+0000
2.518 km
极远距离
1.672217E-6 低风险 0.39
CDM_260904-055106-073806-418821
2026-09-04T
05:51:48+0000
2.465 km
极远距离
1.607659E-6 低风险 0.39
CDM_260903-035905-357006-073821
2026-09-03T
03:59:32+0000
2.554 km
极远距离
1.500118E-6 低风险 0.39
CDM_260904-125806-073806-449221
2026-09-04T
12:58:12+0000
2.584 km
极远距离
1.462387E-6 低风险 0.38
CDM_260903-103505-084806-073821
2026-09-03T
10:35:52+0000
2.333 km
极远距离
1.298209E-6 低风险 0.37
CDM_260903-160405-084806-073821
2026-09-03T
16:04:08+0000
2.552 km
极远距离
1.106455E-6 低风险 0.36
CDM_260905-023706-073806-827121
2026-09-05T
02:37:39+0000
2.700 km
极远距离
8.313082E-7 极低风险 0.33